Terminal Aerodrome Forecast
Issued by NWS

Current Version | Previous Version | Text Only | Print | Product List | Glossary Off
Versions: 1 2 3 4 5 6 7 8 9 10 11 12 13 14 15 16 17 18 19 20 21 22 23 24 25 26 27 28 29 30 31 32 33 34 35 36 37 38 39 40

000
FTUS41 KRNK 151728
TAFLWB
TAF
KLWB 151728Z 1518/1618 03006KT P6SM -RA SCT025 OVC070
     FM160000 05003KT P6SM OVC025
     FM160700 06003KT 5SM BR OVC018
     FM161500 12006KT P6SM OVC025=

USA.gov is the U.S. government's official web portal to all federal, state and local government web resources and services.